• en France
  • Liste des pays
  • À 7 jours
  • Température de l'eau
  • Carte satellitaire
  • Carte météo
  • Widgets météo
  • user-avatar
    Se connecter

    Météo par heure à Neiva

    Ce jour, 25 Février, Dimanche

    Heure Température Précipitation Vent Pression Humidité
    00:00 +24°C° 0 mm 1 m/s 721 mmHg 77%
    01:00 +24°C° 0 mm 1 m/s 721 mmHg 77%
    02:00 +22°C° 0,2 mm 0 m/s 721 mmHg 78%
    03:00 +22°C° 0,2 mm 0 m/s 721 mmHg 78%
    04:00 +21°C° 0,2 mm 0 m/s 721 mmHg 79%
    05:00 +21°C° 0,3 mm 0 m/s 721 mmHg 79%
    06:00 +22°C° 0,3 mm 0 m/s 721 mmHg 79%
    07:00 +22°C° 0,3 mm 0 m/s 722 mmHg 78%
    08:00 +25°C° 0,1 mm 1 m/s 722 mmHg 73%
    09:00 +27°C° 0,1 mm 1 m/s 722 mmHg 67%
    10:00 +28°C° 0,1 mm 1 m/s 723 mmHg 62%
    11:00 +30°C° 0 mm 1 m/s 722 mmHg 57%
    12:00 +31°C° 0 mm 2 m/s 722 mmHg 53%
    13:00 +32°C° 0 mm 2 m/s 721 mmHg 49%
    14:00 +32°C° 0 mm 2 m/s 720 mmHg 48%
    15:00 +32°C° 0 mm 2 m/s 720 mmHg 47%
    16:00 +32°C° 0 mm 2 m/s 719 mmHg 46%
    17:00 +30°C° 0 mm 1 m/s 719 mmHg 53%
    18:00 +28°C° 0 mm 1 m/s 720 mmHg 60%
    19:00 +26°C° 0 mm 1 m/s 720 mmHg 67%
    20:00 +25°C° 0,1 mm 1 m/s 720 mmHg 69%
    21:00 +25°C° 0,1 mm 1 m/s 721 mmHg 71%
    22:00 +24°C° 0,1 mm 1 m/s 722 mmHg 72%
    23:00 +24°C° 0,1 mm 1 m/s 722 mmHg 73%

    Demain, 26 Février, Lundi

    Heure Température Précipitation Vent Pression Humidité
    00:00 +23°C° 0,1 mm 1 m/s 722 mmHg 73%
    01:00 +23°C° 0,1 mm 1 m/s 721 mmHg 73%
    02:00 +23°C° 0,1 mm 1 m/s 721 mmHg 74%
    03:00 +23°C° 0,1 mm 1 m/s 721 mmHg 75%
    04:00 +23°C° 0,1 mm 1 m/s 721 mmHg 76%
    05:00 +23°C° 0,2 mm 1 m/s 722 mmHg 75%
    06:00 +23°C° 0,2 mm 1 m/s 722 mmHg 75%
    07:00 +24°C° 0,2 mm 1 m/s 722 mmHg 75%
    08:00 +26°C° 0,1 mm 1 m/s 723 mmHg 68%
    09:00 +28°C° 0,1 mm 1 m/s 723 mmHg 62%
    10:00 +30°C° 0,1 mm 2 m/s 723 mmHg 55%
    11:00 +31°C° 0 mm 2 m/s 722 mmHg 52%
    12:00 +32°C° 0 mm 2 m/s 721 mmHg 48%
    13:00 +34°C° 0 mm 2 m/s 721 mmHg 45%
    14:00 +34°C° 0 mm 2 m/s 720 mmHg 44%
    15:00 +34°C° 0 mm 2 m/s 719 mmHg 43%
    16:00 +34°C° 0 mm 2 m/s 718 mmHg 42%
    17:00 +31°C° 0 mm 2 m/s 719 mmHg 49%
    18:00 +29°C° 0 mm 1 m/s 719 mmHg 56%
    19:00 +26°C° 0 mm 1 m/s 720 mmHg 62%
    20:00 +26°C° 0 mm 1 m/s 720 mmHg 64%
    21:00 +25°C° 0 mm 1 m/s 721 mmHg 66%
    22:00 +25°C° 0 mm 1 m/s 722 mmHg 68%
    23:00 +24°C° 0 mm 1 m/s 722 mmHg 69%

    Après-demain, 27 Février, Mardi

    Heure Température Précipitation Vent Pression Humidité
    00:00 +24°C° 0 mm 1 m/s 721 mmHg 69%
    01:00 +24°C° 0 mm 1 m/s 721 mmHg 69%
    02:00 +24°C° 0 mm 1 m/s 721 mmHg 70%
    03:00 +23°C° 0 mm 1 m/s 720 mmHg 71%
    04:00 +23°C° 0 mm 1 m/s 720 mmHg 71%
    05:00 +23°C° 0 mm 1 m/s 721 mmHg 71%
    06:00 +24°C° 0 mm 1 m/s 721 mmHg 71%
    07:00 +24°C° 0 mm 1 m/s 722 mmHg 71%
    08:00 +26°C° 0 mm 1 m/s 722 mmHg 65%
    09:00 +28°C° 0 mm 1 m/s 722 mmHg 60%
    10:00 +30°C° 0 mm 1 m/s 723 mmHg 55%
    11:00 +31°C° 0 mm 2 m/s 722 mmHg 51%
    12:00 +32°C° 0 mm 2 m/s 721 mmHg 47%
    13:00 +35°C° 0 mm 2 m/s 720 mmHg 43%
    14:00 +35°C° 0 mm 2 m/s 719 mmHg 43%
    15:00 +34°C° 0 mm 2 m/s 718 mmHg 42%
    16:00 +34°C° 0 mm 2 m/s 717 mmHg 42%
    17:00 +31°C° 0 mm 2 m/s 718 mmHg 48%
    18:00 +29°C° 0 mm 1 m/s 718 mmHg 54%
    19:00 +26°C° 0 mm 1 m/s 719 mmHg 61%
    20:00 +26°C° 0 mm 1 m/s 720 mmHg 63%
    21:00 +25°C° 0 mm 1 m/s 720 mmHg 65%
    22:00 +25°C° 0 mm 1 m/s 721 mmHg 66%
    23:00 +24°C° 0 mm 1 m/s 721 mmHg 67%

    28 Février, Mercredi

    Heure Température Précipitation Vent Pression Humidité
    00:00 +24°C° 0 mm 1 m/s 720 mmHg 68%
    01:00 +24°C° 0 mm 1 m/s 720 mmHg 68%
    02:00 +23°C° 0 mm 1 m/s 720 mmHg 69%
    03:00 +23°C° 0 mm 1 m/s 719 mmHg 70%
    04:00 +23°C° 0 mm 1 m/s 719 mmHg 71%
    05:00 +23°C° 0 mm 1 m/s 720 mmHg 71%
    06:00 +24°C° 0 mm 1 m/s 720 mmHg 70%
    07:00 +24°C° 0 mm 1 m/s 721 mmHg 70%
    08:00 +26°C° 0 mm 1 m/s 721 mmHg 64%
    09:00 +29°C° 0 mm 1 m/s 722 mmHg 58%
    10:00 +31°C° 0 mm 2 m/s 722 mmHg 52%
    11:00 +32°C° 0,1 mm 2 m/s 721 mmHg 49%
    12:00 +34°C° 0,1 mm 2 m/s 720 mmHg 46%
    13:00 +35°C° 0,1 mm 2 m/s 719 mmHg 43%
    14:00 +35°C° 0,2 mm 2 m/s 719 mmHg 44%
    15:00 +35°C° 0,2 mm 2 m/s 718 mmHg 44%
    16:00 +33°C° 0,2 mm 1 m/s 717 mmHg 44%
    17:00 +31°C° 0 mm 1 m/s 718 mmHg 50%
    18:00 +29°C° 0 mm 1 m/s 718 mmHg 57%
    19:00 +27°C° 0 mm 1 m/s 719 mmHg 63%
    20:00 +26°C° 0 mm 1 m/s 720 mmHg 65%
    21:00 +26°C° 0 mm 1 m/s 720 mmHg 67%
    22:00 +25°C° 0 mm 1 m/s 721 mmHg 70%
    23:00 +25°C° 0 mm 1 m/s 721 mmHg 70%

    1 Mars, Jeudi

    Heure Température Précipitation Vent Pression Humidité
    00:00 +24°C° 0 mm 1 m/s 720 mmHg 70%
    01:00 +24°C° 0 mm 1 m/s 720 mmHg 71%
    02:00 +24°C° 0 mm 1 m/s 720 mmHg 71%
    03:00 +24°C° 0 mm 1 m/s 719 mmHg 72%
    04:00 +23°C° 0 mm 1 m/s 719 mmHg 72%
    05:00 +24°C° 0 mm 1 m/s 720 mmHg 72%
    06:00 +24°C° 0 mm 1 m/s 720 mmHg 71%
    07:00 +24°C° 0 mm 1 m/s 721 mmHg 71%
    08:00 +27°C° 0 mm 1 m/s 721 mmHg 64%
    09:00 +29°C° 0 mm 1 m/s 722 mmHg 58%
    10:00 +31°C° 0 mm 2 m/s 722 mmHg 51%
    11:00 +32°C° 0,1 mm 2 m/s 721 mmHg 48%
    12:00 +35°C° 0,1 mm 2 m/s 720 mmHg 45%
    13:00 +36°C° 0,1 mm 2 m/s 720 mmHg 41%
    14:00 +36°C° 0,2 mm 2 m/s 719 mmHg 41%
    15:00 +36°C° 0,2 mm 2 m/s 718 mmHg 41%
    16:00 +35°C° 0,2 mm 1 m/s 718 mmHg 41%
    17:00 +32°C° 0,1 mm 1 m/s 718 mmHg 47%
    18:00 +30°C° 0,1 mm 1 m/s 719 mmHg 54%
    19:00 +28°C° 0,1 mm 1 m/s 719 mmHg 61%
    20:00 +27°C° 0,1 mm 1 m/s 720 mmHg 63%
    21:00 +27°C° 0,1 mm 1 m/s 720 mmHg 65%
    22:00 +26°C° 0,1 mm 1 m/s 721 mmHg 68%
    23:00 +26°C° 0,1 mm 1 m/s 721 mmHg 69%

    2 Mars, Vendredi

    Heure Température Précipitation Vent Pression Humidité
    00:00 +25°C° 0,1 mm 1 m/s 720 mmHg 70%
    01:00 +25°C° 0,1 mm 1 m/s 720 mmHg 71%
    02:00 +24°C° 0 mm 1 m/s 720 mmHg 72%
    03:00 +24°C° 0 mm 1 m/s 720 mmHg 72%
    04:00 +24°C° 0 mm 1 m/s 720 mmHg 73%
    05:00 +24°C° 0 mm 1 m/s 720 mmHg 72%
    06:00 +25°C° 0 mm 1 m/s 721 mmHg 70%
    07:00 +25°C° 0 mm 1 m/s 721 mmHg 69%
    08:00 +28°C° 0 mm 1 m/s 721 mmHg 61%
    09:00 +30°C° 0 mm 1 m/s 722 mmHg 54%
    10:00 +32°C° 0 mm 1 m/s 722 mmHg 46%
    11:00 +34°C° 0 mm 2 m/s 721 mmHg 44%
    12:00 +35°C° 0 mm 2 m/s 720 mmHg 42%
    13:00 +36°C° 0 mm 2 m/s 719 mmHg 40%
    14:00 +36°C° 0,2 mm 2 m/s 719 mmHg 41%
    15:00 +35°C° 0,2 mm 1 m/s 718 mmHg 43%
    16:00 +34°C° 0,2 mm 1 m/s 718 mmHg 44%
    17:00 +32°C° 0,3 mm 1 m/s 718 mmHg 49%
    18:00 +30°C° 0,3 mm 1 m/s 719 mmHg 55%
    19:00 +28°C° 0,3 mm 1 m/s 719 mmHg 61%
    20:00 +28°C° 0,1 mm 1 m/s 720 mmHg 62%
    21:00 +27°C° 0,1 mm 1 m/s 720 mmHg 63%
    22:00 +27°C° 0,1 mm 1 m/s 721 mmHg 64%
    23:00 +26°C° 0 mm 1 m/s 720 mmHg 65%
    Voir plus